Tracking 28766 objects as of 13-Apr-2024
HD Live streaming from Space Station
objects crossing your sky now

USA 160

Track USA 160 now!
10-day predictions
USA 160 is classified as:


NORAD ID: 26905
Int'l Code: 2001-040A
Perigee: 673.9 km
Apogee: 1,551.1 km
Inclination: 63.4 °
Period: 107.4 minutes
Semi major axis: 7483 km
RCS: Unknown
Launch date: September 8, 2001
Source: United States (US)
Launch site: AIR FORCE WESTERN TEST RANGE (AFWTR)
Your satellite tracking list
Your tracking list is empty




NASA's NSSDC Master Catalog

Two Line Element Set (TLE):
1 26905U 01040A   24100.94339310 0.00000100  00000-0  64764-4 0    01
2 26905  63.3832 142.6438 0586104   7.6116 352.3884 13.41063511    00
Source of the keplerian elements: McCants